Location: Shepherdstown, WV
(39.4326°N, 77.8042°W)
Time: 20:07:19
(UTC-04:00)

Vanguard 3 - Pass Details

Date: 29 July 2021
Orbit: 510 x 3260 km, 33.3° (Epoch: 22 September)

Event Time Altitude Azimuth Distance (km) Brightness Sun altitude
Rises 21:46:49 0° 263° (W) 6,453 12.4 -14.0°
Reaches altitude 10° 21:50:42 10° 261° (W) 5,686 12.0 -14.6°
Maximum altitude 22:09:31 73° 182° (S) 3,360 10.0 -17.3°
Enters shadow 22:26:43 13° 103° (ESE) 5,338 10.8 -19.7°
